User: anonymous   Login
Location: Asheville, NC
(35.6000°N, 82.5500°W)
Time: 21:54:05
(UTC-04:00)
Language:

SPROUT - Orbit

View from above orbital plane
View from above orbital plane
View from above satellite
View from above satellite

Ground track
Ground track

The orbit data is extracted from the following two-line orbital elements,

1 39770U 14029E   18115.56221996  .00000812  00000-0  97303-4 0  9995
2 39770  97.8730 217.0583 0009812  30.7643 329.4144 14.86782272212549
Epoch (UTC): 25 April 2018 13:29:35
Eccentricity: 0.0009812
inclination: 97.8730°
perigee height: 601 km
apogee height: 615 km
right ascension of ascending node: 217.0583°
argument of perigee: 30.7643°
revolutions per day: 14.86782272
mean anomaly at epoch: 329.4144°
orbit number at epoch: 21254

The dashed part of the orbit path shows where the satellite is in the earth's shadow,  

DLR